San Angelo, TX

2:26 PM CDT on April 28, 2017 (GMT -0500)
San Angelo Regional-Mathis

Weather History for KSJT - November, 2013

Change the Weather History Date:

Tuesday, November 26, 2013

  Actual Average Record
Temperature  
Mean Temperature 42 °F 51 °F  
Max Temperature 52 °F 64 °F 85 °F (1965)
Min Temperature 32 °F 38 °F 19 °F (1993)
Degree Days  
Heating Degree Days 23 14  
Month to date heating degree days 316 250  
Since 1 July heating degree days 398 341  
Cooling Degree Days 0 0  
Month to date cooling degree days 9 15  
Year to date cooling degree days 2860 2499  
Moisture  
Dew Point 30 °F    
Average Humidity 65    
Maximum Humidity 89    
Minimum Humidity 41    
Precipitation  
Precipitation T in 0.03 in 1.64 in (1914)
Month to date precipitation 0.81 1.03  
Year to date precipitation 18.65 20.29  
Snow  
Snow T in 0.00 in 4.00 in (1918)
Month to date snowfall T 0.2  
Since 1 July snowfall T 0.2  
Snow Depth 0.00 in    
Sea Level Pressure  
Sea Level Pressure 30.31 in    
Wind  
Wind Speed 12 mph (NNW)    
Max Wind Speed 24 mph    
Max Gust Speed 30 mph    
Visibility 10 miles    
Events      
T = Trace of Precipitation, MM = Missing Value Source: NWS Daily Summary

Daily Weather History Graph

Daily Weather History Graph

Search for Another Location

Airport or City:

Trip Planner

Search our weather history database for the weather conditions in past years. The results will help you decide how hot, cold, wet, or windy it might be!

Date:

Astronomy

Nov. 26, 2013 Rise Set
Actual Time 7:19 AM CST 5:39 PM CST
Civil Twilight 6:53 AM CST 6:05 PM CST
Nautical Twilight 6:23 AM CST 6:35 PM CST
Astronomical Twilight 5:54 AM CST 7:04 PM CST
Moon 12:49 AM CST (11/26) 1:24 PM CST (11/26)
Length of Visible Light 11h 12m
Length of Day
10h 20m
Last Quarter, 41% of the Moon is Illuminated
Nov 26
Last Quarter
Dec 2
New
Dec 9
First Quarter
Dec 17
Full
Dec 25
Last Quarter

Hourly Weather History & Observations

Time (CST) Temp. Windchill Dew Point Humidity Pressure Visibility Wind Dir Wind Speed Gust Speed Precip Events Conditions
12:51 AM 37.0 °F 31.0 °F 33.1 °F 86% 30.23 in 10.0 mi North 8.1 mph - N/A   Overcast
1:11 AM 37.4 °F 29.8 °F 33.8 °F 87% 30.20 in 10.0 mi North 11.5 mph - N/A   Overcast
1:41 AM 37.4 °F 29.3 °F 33.8 °F 87% 30.20 in 10.0 mi North 12.7 mph - N/A   Overcast
1:51 AM 37.0 °F 29.8 °F 33.1 °F 86% 30.23 in 10.0 mi North 10.4 mph - N/A   Overcast
1:59 AM 37.4 °F 30.3 °F 33.8 °F 87% 30.20 in 10.0 mi North 10.4 mph - N/A   Overcast
2:43 AM 35.6 °F 27.5 °F 32.0 °F 87% 30.20 in 10.0 mi NNW 11.5 mph - N/A   Overcast
2:51 AM 36.0 °F 28.0 °F 32.0 °F 86% 30.23 in 10.0 mi NNW 11.5 mph - N/A   Overcast
3:05 AM 35.6 °F 28.6 °F 32.0 °F 87% 30.20 in 10.0 mi NNW 9.2 mph - N/A   Overcast
3:23 AM 37.4 °F 30.3 °F 32.0 °F 81% 30.21 in 10.0 mi North 10.4 mph - N/A   Overcast
3:51 AM 37.0 °F 28.1 °F 30.9 °F 79% 30.25 in 10.0 mi North 15.0 mph - N/A   Overcast
4:24 AM 35.6 °F 29.2 °F 32.0 °F 87% 30.22 in 10.0 mi North 8.1 mph - 0.00 in   Overcast
4:51 AM 36.0 °F 26.3 °F 30.9 °F 82% 30.27 in 9.0 mi NNW 16.1 mph 24.2 mph 0.00 in   Overcast
5:00 AM 35.6 °F 25.9 °F 30.2 °F 81% 30.24 in 10.0 mi NNW 16.1 mph - N/A   Overcast
5:51 AM 35.1 °F 26.4 °F 30.0 °F 82% 30.29 in 10.0 mi NNW 12.7 mph - 0.00 in   Overcast
6:51 AM 35.1 °F 26.9 °F 28.9 °F 78% 30.31 in 10.0 mi NNW 11.5 mph - 0.00 in   Overcast
7:51 AM 35.1 °F 27.4 °F 30.9 °F 85% 30.32 in 10.0 mi NNW 10.4 mph - N/A   Overcast
8:25 AM 35.6 °F 26.6 °F 30.2 °F 81% 30.30 in 10.0 mi NW 13.8 mph 20.7 mph N/A   Overcast
8:51 AM 37.0 °F 29.3 °F 30.0 °F 76% 30.34 in 10.0 mi North 11.5 mph - N/A   Overcast
9:51 AM 37.9 °F 30.5 °F 30.0 °F 73% 30.36 in 10.0 mi NNW 11.5 mph - N/A   Overcast
10:29 AM 42.8 °F 34.8 °F 30.2 °F 61% 30.32 in 10.0 mi NNW 17.3 mph - N/A   Scattered Clouds
10:51 AM 43.0 °F 34.8 °F 30.9 °F 62% 30.35 in 10.0 mi NNW 18.4 mph 23.0 mph N/A   Clear
11:51 AM 46.9 °F - 30.0 °F 52% 30.34 in 10.0 mi NNW 15.0 mph 21.9 mph N/A   Clear
12:51 PM 48.9 °F - 30.0 °F 48% 30.33 in 10.0 mi North 20.7 mph 28.8 mph N/A   Clear
1:51 PM 50.0 °F - 28.9 °F 44% 30.32 in 10.0 mi NW 18.4 mph - N/A   Clear
2:51 PM 51.1 °F - 30.0 °F 44% 30.32 in 10.0 mi NNW 19.6 mph - N/A   Clear
3:51 PM 52.0 °F - 28.9 °F 41% 30.32 in 10.0 mi NNW 13.8 mph 21.9 mph N/A   Clear
4:51 PM 50.0 °F - 28.9 °F 44% 30.34 in 10.0 mi NNW 16.1 mph 26.5 mph N/A   Clear
5:51 PM 46.9 °F - 28.9 °F 50% 30.35 in 10.0 mi NNW 10.4 mph - N/A   Clear
6:51 PM 43.0 °F 38.2 °F 28.9 °F 58% 30.39 in 10.0 mi NW 8.1 mph - N/A   Clear
7:51 PM 39.0 °F 34.0 °F 28.9 °F 67% 30.40 in 10.0 mi West 6.9 mph - N/A   Clear
8:51 PM 37.0 °F 31.6 °F 28.9 °F 73% 30.43 in 10.0 mi West 6.9 mph - N/A   Clear
9:51 PM 37.9 °F 35.5 °F 28.9 °F 70% 30.44 in 10.0 mi WNW 3.5 mph - N/A   Clear
10:51 PM 33.1 °F 28.7 °F 28.0 °F 82% 30.45 in 10.0 mi WSW 4.6 mph - N/A   Clear
11:51 PM 35.1 °F 31.0 °F 28.0 °F 76% 30.45 in 10.0 mi NW 4.6 mph - N/A   Clear